Location: 5810 Zion Rd, Cleves, OH 45002, USA
(39.1922°N, 84.7113°W)
Time: 00:02:18
(UTC-05:00)

Courier 1B Rocket - Pass Details

Date: 09 December 2019
Orbit: 920 x 1202 km, 28.2° (Epoch: 22 January)

Event Time Altitude Azimuth Distance (km) Brightness Sun altitude
Rises 07:36:45 0° 235° (SW) 3,782 7.8 -2.5°
Reaches altitude 10° 07:39:57 10° 223° (SW) 2,781 7.3 -1.9°
Maximum altitude 07:45:21 26° 169° (S) 1,799 7.0 -1.0°
Drops below altitude 10° 07:50:31 10° 115° (ESE) 2,651 9.6 -0.1°
Sets 07:53:30 0° 102° (ESE) 3,572 9.7 0.4°
